Home   Weather   Gaborone   Past weeks
Flag for Botswana

Past Weather in Gaborone, Botswana — Yesterday and Last 2 Weeks

Now
81 °F

Passing clouds.


Feels Like: 80 °F
Forecast: 90 / 63 °F
Wind: 14 mph from Northeast

Location: Seretse Khama International Airport

Current Time: Oct 16, 2019 at 12:16:02 pm

Latest Report: Oct 16, 2019 at 11:00 am


Visibility: N/A

Pressure: 30.24 "Hg (26.96 "Hg at 1009m altitude)

Humidity: 39%

Dew Point: 54 °F

Location of GaboroneLocation

Past Weather in Gaborone — Graph

°F

Gaborone Temperature Yesterday

Maximum temperature yesterday: 95 °F (at 4:00 pm)
Minimum temperature yesterday: 72 °F (at 5:00 am)
Average temperature yesterday: 82 °F

High & Low Weather Summary for the Past Weeks

 TemperatureHumidityPressure
High99 °F (Oct 8, 3:00 pm)72% (Oct 12, 5:00 am)30.33 "Hg (Oct 12, 5:00 am)
Low57 °F (Oct 2, 6:00 am)3% (Oct 8, 5:00 pm)29.83 "Hg (Oct 9, 3:00 pm)
Average78 °F27%30.09 "Hg
* Reported Oct 1 11:00 am — Oct 16 11:00 am, Gaborone. Weather by CustomWeather, © 2019

Note: Actual official high and low records may vary slightly from our data, if they occured in-between our weather recording intervals... More about our weather records

Advertising

Gaborone Weather History for the Previous 24 Hours

Scroll right to see more
 ConditionsComfort  
Time TempWeatherWind HumidityBarometerVisibility
11:00 am
Wed, Oct 16
81 °FPassing clouds.14 mph39%30.24 "HgN/A
10:00 am79 °FSunny.15 mph42%30.27 "Hg10 mi
9:00 am77 °FPassing clouds.16 mph47%30.27 "HgN/A
8:00 am73 °FSunny.18 mph50%30.27 "Hg10 mi
7:00 am72 °FSunny.13 mph57%30.24 "Hg10 mi
6:00 am64 °FSunny.7 mph68%30.24 "Hg10 mi
5:00 am66 °FClear.8 mph64%30.21 "Hg10 mi
4:00 am68 °FClear.8 mph60%30.18 "Hg10 mi
3:00 am72 °FClear.3 mph50%30.21 "Hg10 mi
2:00 am72 °FClear.8 mph50%30.24 "Hg10 mi
1:00 am75 °FPassing clouds.13 mph41%30.24 "HgN/A
12:00 am79 °FPassing clouds.3 mph34%30.24 "HgN/A
11:00 pm
Tue, Oct 15
79 °FPassing clouds.8 mph34%30.21 "HgN/A
10:00 pm79 °FClear.14 mph34%30.21 "Hg10 mi
9:00 pm84 °FPassing clouds.7 mph22%30.15 "HgN/A
8:00 pm84 °FPassing clouds.21 mph23%30.12 "HgN/A
7:00 pm88 °FThunderstorms. Passing clouds.25 mph19%30.09 "HgN/A
6:00 pm90 °FThunderstorms. Scattered clouds.12 mph17%30.07 "HgN/A
5:00 pm95 °FPassing clouds.3 mph14%30.07 "HgN/A
4:00 pm95 °FPassing clouds.6 mph14%30.07 "HgN/A
3:00 pm93 °FPassing clouds.5 mph15%30.09 "HgN/A
2:00 pm93 °FSunny.3 mph17%30.12 "Hg10 mi
1:00 pm90 °FPassing clouds.9 mph21%30.15 "HgN/A
12:00 pm88 °FPassing clouds.8 mph25%30.15 "HgN/A
Weather by CustomWeather, © 2019

See weather overview